Regional Weather Roundup
Issued by NWS

Home | Current Version | Previous Version | Graphics & Text | Print | Product List | Glossary On
Versions: 1 2 3 4 5 6 7 8 9 10 11 12 13 14 15 16 17 18 19 20 21 22 23 24 25 26 27 28 29 30 31 32 33 34 35 36 37 38 39 40 41 42 43 44 45 46 47 48 49 50
000
ASUS45 KCYS 280910
RWRWY

WYOMING REGIONAL WEATHER ROUNDUP
NATIONAL WEATHER SERVICE CHEYENNE WY
300 AM MDT THU AUG 28 2014

NOTE:  "FAIR" INDICATES FEW OR NO CLOUDS BELOW 12,000 FEET
WITH NO SIGNIFICANT WEATHER AND/OR OBSTRUCTIONS TO VISIBILITY.

WYZ001-281000-
YELLOWSTONE NATIONAL PARK

CITY           SKY/WX    TMP DP  RH WIND       PRES   REMARKS
LK YELLOWSTONE   N/A     38  36  92 CALM      30.38R
W YELLOWSTONE  NOT AVBL

$$
WYZ002>013-054>058-071-098>099-281000-
NORTHERN WYOMING

CITY           SKY/WX    TMP DP  RH WIND       PRES   REMARKS
JACKSON        CLEAR     45  41  87 N5        30.29S
CODY           CLEAR     59  46  63 SW6       30.14S
GREYBULL       CLEAR     57  51  80 CALM      30.09S
WORLAND        PTCLDY    55  52  89 SW3       30.10S
SHERIDAN       CLEAR     52  46  80 CALM      30.05F
BUFFALO        CLEAR     57  44  62 W7        30.11F
GILLETTE       PTCLDY    57  52  83 SE3       30.06S
HULETT         FAIR      57  54  88 MISG      30.07
NEWCASTLE      FAIR      59  55  88 NW6       30.07

$$
WYZ014>020-022>026-101>103-281000-
CENTRAL WYOMING

CITY           SKY/WX    TMP DP  RH WIND       PRES   REMARKS
BIG PINEY      CLEAR     41  39  93 CALM      30.31S
PINEDALE       PTSUNNY   43  43 100 W6        30.31S FOG
DUBOIS         FAIR      45  37  76 NW9       30.30R
LANDER         PTCLDY    56  49  77 SW5       30.18S
RIVERTON       PTCLDY    54  51  90 W3        30.20R
CASPER         CLOUDY    56  53  90 SW12      30.14F
DOUGLAS        CLOUDY    59  56  89 NW9       30.11F

$$
WYZ021-027>030-104>119-281000-
SOUTHERN WYOMING

CITY           SKY/WX    TMP DP  RH WIND       PRES   REMARKS
EVANSTON       CLEAR     47  45  93 SW8       30.35S
KEMMERER       MOSUNNY   48  45  87 NW6       30.34S
FORT BRIDGER   FAIR      53  47  82 W14       30.35S
ROCK SPRINGS   MOCLDY    49  46  90 SW8       30.29R
DIXON          LGT RAIN  51  50  95 SW5       30.30F
RAWLINS        CLOUDY    52  49  89 W7        30.26R
SARATOGA       CLOUDY    50  46  87 CALM      30.28S
LARAMIE        MOCLDY    45  42  89 SE7       30.23F
CHEYENNE       MOCLDY    51  45  79 W7        30.17S
TORRINGTON     MOCLDY    59  57  93 NW6       30.05S
PINE BLUFFS    FAIR      54  50  87 W8        30.12S

$$


USA.gov is the U.S. government's official web portal to all federal, state and local government web resources and services.